Tracking 19242 objects as of 15-Aug-2018
HD Live streaming from Space Station
objects crossing your sky now

FENGYUN 1C DEB

Track FENGYUN 1C DEB now!
10-day predictions


NORAD ID: 30816
Int'l Code: 1999-025AVA
Perigee: 838.4 km
Apogee: 927.7 km
Inclination: 99.1 °
Period: 102.5 minutes
Semi major axis: 7254 km
RCS: 0.037 m2 (small)
Launch date: May 10, 1999
Source: People's Republic of China (PRC)
Launch site: Taiyaun Space Center, China (TSC)

Note: This is SATELLITE DEBRIS
aabbcc
Your satellite tracking list
Your tracking list is empty




NASA's NSSDC Master Catalog

Two Line Element Set (TLE):
1 30816U 99025AVA 18226.85081172 +.00000220 +00000-0 +16187-3 0  9994
2 30816 099.1039 262.2219 0061584 359.2611 052.8548 14.05179922587031
Source of the keplerian elements: AFSPC